LAN894 SCCI-EGYP

Flight info

Callsign LAN894
Flight time 1h 14m
Altitude 35000
Route DCT D022J DCT PALIX DCT GAL UW54 MTP DCT YP432 DCT YP430 DCT
Aircraft A321/M-SDE3FGHIRWY/LB1

Departure

Time 2026-04-20 16:31
Airport President Carlos Ibáñez International Airport (SCCI)

Arrival

Time 2026-04-20 17:45
Airport Mount Pleasant Airport / RAF Mount Pleasant (EGYP)
Time Latitude Longitude Altitude Speed Heading
2026-04-20 16:09 -53.00445 -70.84450 143 ft 0 kts 179°
2026-04-20 16:24 -53.00424 -70.84452 142 ft 4 kts 167°
2026-04-20 16:25 -53.00400 -70.84468 142 ft 4 kts 141°
2026-04-20 16:25 -53.00384 -70.84501 142 ft 4 kts 101°
2026-04-20 16:25 -53.00383 -70.84516 142 ft 0 kts 89°
2026-04-20 16:27 -53.00382 -70.84462 141 ft 11 kts 89°
2026-04-20 16:28 -53.00349 -70.84371 140 ft 8 kts 12°
2026-04-20 16:28 -53.00297 -70.84374 140 ft 7 kts 356°
2026-04-20 16:28 -53.00259 -70.84351 140 ft 5 kts 51°
2026-04-20 16:28 -53.00246 -70.84245 140 ft 16 kts 87°
2026-04-20 16:29 -53.00243 -70.84037 140 ft 18 kts 89°
2026-04-20 16:29 -53.00240 -70.83844 140 ft 16 kts 89°
2026-04-20 16:29 -53.00236 -70.83666 140 ft 16 kts 85°
2026-04-20 16:29 -53.00235 -70.83476 140 ft 17 kts 82°
2026-04-20 16:30 -53.00134 -70.83421 140 ft 18 kts 359°
2026-04-20 16:30 -53.00065 -70.83528 138 ft 15 kts 268°
2026-04-20 16:30 -53.00069 -70.83796 140 ft 46 kts 269°
2026-04-20 16:30 -53.00074 -70.84706 143 ft 109 kts 269°
2026-04-20 16:31 -53.00097 -70.86252 151 ft 156 kts 269°
2026-04-20 16:31 -53.00136 -70.88025 857 ft 147 kts 270°
2026-04-20 16:31 -53.00157 -70.89709 1511 ft 146 kts 272°
2026-04-20 16:31 -53.00071 -70.91474 1694 ft 163 kts 289°
2026-04-20 16:32 -52.99252 -70.92830 1920 ft 179 kts 329°
2026-04-20 16:32 -52.97949 -70.93091 2170 ft 207 kts 360°
2026-04-20 16:32 -52.96567 -70.91922 2404 ft 246 kts 34°
2026-04-20 16:32 -52.95354 -70.89688 2779 ft 276 kts 46°
2026-04-20 16:33 -52.94242 -70.86999 3316 ft 288 kts 50°
2026-04-20 16:33 -52.93116 -70.84186 3951 ft 296 kts 49°
2026-04-20 16:33 -52.91945 -70.81333 4715 ft 302 kts 49°
2026-04-20 16:33 -52.90726 -70.78476 5566 ft 305 kts 48°
2026-04-20 16:34 -52.89465 -70.75620 6305 ft 308 kts 47°
2026-04-20 16:34 -52.88174 -70.72773 7008 ft 311 kts 47°
2026-04-20 16:34 -52.86799 -70.70010 7676 ft 310 kts 38°
2026-04-20 16:34 -52.85117 -70.67834 8347 ft 307 kts 28°
2026-04-20 16:35 -52.83345 -70.65834 9024 ft 310 kts 28°
2026-04-20 16:35 -52.81556 -70.63806 9688 ft 314 kts 29°
2026-04-20 16:35 -52.79714 -70.61716 9962 ft 331 kts 29°
2026-04-20 16:35 -52.77757 -70.59500 10098 ft 351 kts 29°
2026-04-20 16:36 -52.75686 -70.57150 10229 ft 371 kts 30°
2026-04-20 16:36 -52.73557 -70.54725 10589 ft 380 kts 31°
2026-04-20 16:36 -52.71379 -70.52232 11188 ft 383 kts 31°
2026-04-20 16:36 -52.69266 -70.49814 11747 ft 386 kts 30°
2026-04-20 16:37 -52.67046 -70.47282 12313 ft 391 kts 30°
2026-04-20 16:37 -52.64797 -70.44727 12877 ft 395 kts 30°
2026-04-20 16:37 -52.62522 -70.42152 13441 ft 399 kts 30°
2026-04-20 16:37 -52.60222 -70.39556 13932 ft 403 kts 30°
2026-04-20 16:38 -52.57899 -70.36940 14431 ft 406 kts 30°
2026-04-20 16:38 -52.55558 -70.34306 14953 ft 409 kts 30°
2026-04-20 16:38 -52.53197 -70.31653 15445 ft 413 kts 30°
2026-04-20 16:38 -52.51104 -70.29304 15897 ft 415 kts 30°
2026-04-20 16:39 -52.48710 -70.26614 16405 ft 418 kts 30°
2026-04-20 16:39 -52.46307 -70.23919 16905 ft 421 kts 29°
2026-04-20 16:39 -52.43878 -70.21199 17395 ft 423 kts 29°
2026-04-20 16:39 -52.41441 -70.18470 17874 ft 426 kts 29°
2026-04-20 16:40 -52.38983 -70.15723 18308 ft 429 kts 29°
2026-04-20 16:40 -52.36509 -70.12964 18722 ft 431 kts 29°
2026-04-20 16:40 -52.34021 -70.10195 19144 ft 434 kts 29°
2026-04-20 16:40 -52.31518 -70.07413 19559 ft 436 kts 29°
2026-04-20 16:41 -52.29005 -70.04624 19947 ft 438 kts 29°
2026-04-20 16:41 -52.26468 -70.01815 20334 ft 441 kts 29°
2026-04-20 16:41 -52.23925 -69.99001 20740 ft 443 kts 29°
2026-04-20 16:41 -52.21451 -69.96267 21143 ft 445 kts 29°
2026-04-20 16:42 -52.18881 -69.93430 21543 ft 447 kts 28°
2026-04-20 16:42 -52.16296 -69.90581 21907 ft 450 kts 28°
2026-04-20 16:42 -52.13688 -69.87716 22229 ft 454 kts 28°
2026-04-20 16:42 -52.11279 -69.85073 22572 ft 457 kts 28°
2026-04-20 16:43 -52.08635 -69.82172 22970 ft 459 kts 28°
2026-04-20 16:43 -52.05980 -69.79268 23343 ft 461 kts 28°
2026-04-20 16:43 -52.03296 -69.76393 23644 ft 463 kts 27°
2026-04-20 16:43 -52.00623 -69.73596 23932 ft 465 kts 27°
2026-04-20 16:44 -51.97882 -69.70773 24229 ft 467 kts 27°
2026-04-20 16:44 -51.95092 -69.67913 24516 ft 469 kts 27°
2026-04-20 16:44 -51.92367 -69.65118 24815 ft 471 kts 27°
2026-04-20 16:44 -51.89596 -69.62272 25089 ft 473 kts 27°
2026-04-20 16:45 -51.86815 -69.59402 25355 ft 476 kts 27°
2026-04-20 16:45 -51.84017 -69.56507 25612 ft 479 kts 27°
2026-04-20 16:45 -51.81207 -69.53602 25879 ft 481 kts 27°
2026-04-20 16:45 -51.78382 -69.50687 26146 ft 483 kts 27°
2026-04-20 16:46 -51.75542 -69.47764 26406 ft 485 kts 27°
2026-04-20 16:46 -51.72686 -69.44834 26677 ft 487 kts 27°
2026-04-20 16:46 -51.69850 -69.41807 26921 ft 493 kts 32°
2026-04-20 16:46 -51.67281 -69.38084 27150 ft 502 kts 44°
2026-04-20 16:47 -51.65500 -69.34453 27368 ft 508 kts 54°
2026-04-20 16:47 -51.64206 -69.30800 27523 ft 512 kts 63°
2026-04-20 16:47 -51.62980 -69.25405 27733 ft 515 kts 76°
2026-04-20 16:47 -51.62418 -69.20104 27916 ft 516 kts 88°
2026-04-20 16:48 -51.62458 -69.14353 28126 ft 514 kts 99°
2026-04-20 16:48 -51.62852 -69.08627 28343 ft 516 kts 99°
2026-04-20 16:48 -51.63244 -69.02880 28574 ft 518 kts 99°
2026-04-20 16:48 -51.63632 -68.97097 28802 ft 520 kts 99°
2026-04-20 16:49 -51.64012 -68.91313 29105 ft 520 kts 99°
2026-04-20 16:49 -51.64388 -68.85518 29427 ft 520 kts 99°
2026-04-20 16:49 -51.64761 -68.79739 29741 ft 520 kts 99°
2026-04-20 16:49 -51.65133 -68.73936 30016 ft 520 kts 100°
2026-04-20 16:50 -51.65502 -68.68152 30269 ft 520 kts 100°
2026-04-20 16:50 -51.65871 -68.62360 30532 ft 520 kts 100°
2026-04-20 16:50 -51.66236 -68.56562 30788 ft 520 kts 100°
2026-04-20 16:50 -51.66597 -68.50767 31049 ft 520 kts 100°
2026-04-20 16:51 -51.66957 -68.44982 31301 ft 520 kts 100°
2026-04-20 16:51 -51.67319 -68.39180 31567 ft 520 kts 100°
2026-04-20 16:51 -51.67678 -68.33395 31817 ft 520 kts 100°
2026-04-20 16:51 -51.68035 -68.27599 32065 ft 520 kts 100°
2026-04-20 16:52 -51.68386 -68.21794 32318 ft 520 kts 99°
2026-04-20 16:52 -51.68729 -68.15998 32617 ft 519 kts 100°
2026-04-20 16:52 -51.69067 -68.10205 32876 ft 519 kts 100°
2026-04-20 16:52 -51.69392 -68.04551 33108 ft 520 kts 100°
2026-04-20 16:53 -51.69700 -67.98752 33347 ft 520 kts 99°
2026-04-20 16:53 -51.69986 -67.92929 33581 ft 520 kts 99°
2026-04-20 16:53 -51.70256 -67.87116 33806 ft 521 kts 99°
2026-04-20 16:53 -51.70520 -67.81295 34010 ft 520 kts 99°
2026-04-20 16:54 -51.70785 -67.75481 34234 ft 520 kts 99°
2026-04-20 16:54 -51.71056 -67.69675 34451 ft 519 kts 99°
2026-04-20 16:54 -51.71331 -67.63885 34674 ft 518 kts 99°
2026-04-20 16:54 -51.71602 -67.58184 34772 ft 516 kts 99°
2026-04-20 16:55 -51.72137 -67.46595 34793 ft 514 kts 99°
2026-04-20 16:55 -51.72563 -67.37044 34794 ft 514 kts 99°
2026-04-20 16:56 -51.73065 -67.25558 34792 ft 514 kts 99°
2026-04-20 16:56 -51.73557 -67.14060 34792 ft 514 kts 99°
2026-04-20 16:57 -51.74032 -67.02554 34816 ft 514 kts 99°
2026-04-20 16:57 -51.74570 -66.91058 34797 ft 514 kts 101°
2026-04-20 16:58 -51.75180 -66.79568 34792 ft 514 kts 101°
2026-04-20 16:58 -51.75767 -66.68063 34792 ft 515 kts 100°
2026-04-20 16:59 -51.76320 -66.56535 34796 ft 515 kts 101°
2026-04-20 16:59 -51.76857 -66.45010 34797 ft 514 kts 101°
2026-04-20 17:00 -51.77642 -66.27748 34799 ft 514 kts 100°
2026-04-20 17:01 -51.78142 -66.16235 34801 ft 514 kts 100°
2026-04-20 17:01 -51.78642 -66.04736 34809 ft 514 kts 100°
2026-04-20 17:02 -51.79115 -65.93225 34806 ft 514 kts 100°
2026-04-20 17:02 -51.79519 -65.81713 34799 ft 513 kts 99°
2026-04-20 17:03 -51.79883 -65.70195 34792 ft 513 kts 99°
2026-04-20 17:03 -51.80248 -65.58690 34790 ft 513 kts 99°
2026-04-20 17:04 -51.80608 -65.47257 34791 ft 513 kts 99°
2026-04-20 17:04 -51.80972 -65.35748 34791 ft 513 kts 99°
2026-04-20 17:05 -51.81321 -65.24231 34782 ft 513 kts 99°
2026-04-20 17:05 -51.81650 -65.12700 34784 ft 513 kts 99°
2026-04-20 17:06 -51.81969 -65.01173 34805 ft 513 kts 99°
2026-04-20 17:06 -51.82284 -64.89657 34752 ft 512 kts 99°
2026-04-20 17:07 -51.82591 -64.78159 34765 ft 512 kts 99°
2026-04-20 17:07 -51.82879 -64.66656 34779 ft 512 kts 99°
2026-04-20 17:08 -51.83152 -64.55158 34782 ft 512 kts 99°
2026-04-20 17:08 -51.83418 -64.43647 34781 ft 512 kts 98°
2026-04-20 17:09 -51.83670 -64.32135 34796 ft 512 kts 99°
2026-04-20 17:09 -51.83904 -64.20634 34798 ft 512 kts 99°
2026-04-20 17:10 -51.84136 -64.09135 34796 ft 511 kts 99°
2026-04-20 17:10 -51.84358 -63.97675 34762 ft 508 kts 99°
2026-04-20 17:11 -51.84566 -63.86266 34757 ft 508 kts 99°
2026-04-20 17:11 -51.84765 -63.74845 34781 ft 509 kts 99°
2026-04-20 17:12 -51.84945 -63.63400 34778 ft 509 kts 99°
2026-04-20 17:12 -51.85118 -63.51957 34783 ft 509 kts 99°
2026-04-20 17:13 -51.85287 -63.40597 34786 ft 509 kts 99°
2026-04-20 17:13 -51.85436 -63.29157 34779 ft 509 kts 98°
2026-04-20 17:14 -51.85569 -63.17646 34784 ft 509 kts 99°
2026-04-20 17:14 -51.85696 -63.06286 34785 ft 508 kts 99°
2026-04-20 17:15 -51.85820 -62.94867 34764 ft 506 kts 99°
2026-04-20 17:15 -51.85938 -62.83415 34755 ft 506 kts 99°
2026-04-20 17:16 -51.86038 -62.72092 34753 ft 507 kts 99°
2026-04-20 17:16 -51.86120 -62.60691 34777 ft 507 kts 99°
2026-04-20 17:17 -51.86187 -62.49290 34777 ft 507 kts 99°
2026-04-20 17:17 -51.86259 -62.37894 34767 ft 506 kts 99°
2026-04-20 17:18 -51.86352 -62.26510 34765 ft 506 kts 99°
2026-04-20 17:18 -51.86432 -62.15128 34791 ft 506 kts 99°
2026-04-20 17:19 -51.86493 -62.03746 34788 ft 505 kts 99°
2026-04-20 17:19 -51.86537 -61.92383 34762 ft 504 kts 99°
2026-04-20 17:20 -51.86565 -61.81058 34756 ft 504 kts 99°
2026-04-20 17:20 -51.86597 -61.69716 34758 ft 504 kts 99°
2026-04-20 17:21 -51.86614 -61.58448 34782 ft 504 kts 99°
2026-04-20 17:21 -51.86615 -61.47033 34783 ft 504 kts 99°
2026-04-20 17:22 -51.86607 -61.35702 34783 ft 504 kts 99°
2026-04-20 17:22 -51.86590 -61.24369 34782 ft 504 kts 99°
2026-04-20 17:23 -51.86560 -61.13036 34777 ft 503 kts 99°
2026-04-20 17:23 -51.86530 -61.01719 34797 ft 503 kts 99°
2026-04-20 17:24 -51.86480 -60.90496 34755 ft 500 kts 98°
2026-04-20 17:24 -51.86411 -60.79171 34742 ft 500 kts 98°
2026-04-20 17:25 -51.86339 -60.67915 34742 ft 501 kts 98°
2026-04-20 17:25 -51.86260 -60.56624 34743 ft 502 kts 98°
2026-04-20 17:26 -51.86169 -60.45312 34764 ft 503 kts 97°
2026-04-20 17:26 -51.86060 -60.33988 34759 ft 504 kts 97°
2026-04-20 17:27 -51.85948 -60.22665 34759 ft 503 kts 97°
2026-04-20 17:27 -51.85822 -60.11340 34624 ft 503 kts 97°
2026-04-20 17:27 -51.85759 -60.05717 33668 ft 512 kts 98°
2026-04-20 17:28 -51.85697 -59.99843 32645 ft 517 kts 98°
2026-04-20 17:28 -51.85625 -59.94016 31859 ft 518 kts 97°
2026-04-20 17:28 -51.85539 -59.88204 31207 ft 516 kts 97°
2026-04-20 17:28 -51.85450 -59.82413 30555 ft 513 kts 97°
2026-04-20 17:29 -51.85365 -59.76674 29999 ft 509 kts 97°
2026-04-20 17:29 -51.85280 -59.70968 29414 ft 505 kts 97°
2026-04-20 17:29 -51.85189 -59.65320 28825 ft 500 kts 97°
2026-04-20 17:29 -51.85097 -59.59735 28244 ft 495 kts 96°
2026-04-20 17:30 -51.85004 -59.54184 27615 ft 488 kts 96°
2026-04-20 17:30 -51.84910 -59.48764 26480 ft 479 kts 96°
2026-04-20 17:30 -51.84818 -59.43434 25358 ft 470 kts 95°
2026-04-20 17:30 -51.84727 -59.38195 24303 ft 462 kts 94°
2026-04-20 17:31 -51.84638 -59.33113 23282 ft 454 kts 94°
2026-04-20 17:31 -51.84547 -59.27997 22060 ft 446 kts 93°
2026-04-20 17:31 -51.84454 -59.23028 20896 ft 438 kts 92°
2026-04-20 17:31 -51.84360 -59.18143 19779 ft 431 kts 92°
2026-04-20 17:32 -51.84270 -59.13397 18712 ft 425 kts 91°
2026-04-20 17:32 -51.84175 -59.08598 17619 ft 418 kts 91°
2026-04-20 17:32 -51.84080 -59.03936 16503 ft 412 kts 91°
2026-04-20 17:32 -51.83985 -58.99402 15464 ft 405 kts 91°
2026-04-20 17:33 -51.83887 -58.94886 14457 ft 399 kts 91°
2026-04-20 17:33 -51.83788 -58.90483 13944 ft 380 kts 90°
2026-04-20 17:33 -51.83691 -58.86315 13539 ft 367 kts 91°
2026-04-20 17:33 -51.83600 -58.82214 13271 ft 360 kts 91°
2026-04-20 17:34 -51.83509 -58.78197 12890 ft 356 kts 91°
2026-04-20 17:34 -51.83419 -58.74201 12450 ft 355 kts 91°
2026-04-20 17:34 -51.83330 -58.70217 12008 ft 354 kts 91°
2026-04-20 17:34 -51.83238 -58.66251 11561 ft 354 kts 91°
2026-04-20 17:35 -51.83144 -58.62278 11114 ft 354 kts 90°
2026-04-20 17:35 -51.83046 -58.58298 10666 ft 354 kts 90°
2026-04-20 17:35 -51.82944 -58.54336 10331 ft 350 kts 90°
2026-04-20 17:35 -51.82842 -58.50466 10198 ft 340 kts 90°
2026-04-20 17:36 -51.82752 -58.46701 10063 ft 330 kts 93°
2026-04-20 17:36 -51.83030 -58.43112 9844 ft 316 kts 111°
2026-04-20 17:36 -51.83854 -58.39859 9385 ft 310 kts 127°
2026-04-20 17:36 -51.85091 -58.37061 8980 ft 304 kts 134°
2026-04-20 17:37 -51.86371 -58.34319 8518 ft 304 kts 133°
2026-04-20 17:37 -51.87631 -58.31577 8053 ft 305 kts 133°
2026-04-20 17:37 -51.88883 -58.28829 7776 ft 301 kts 133°
2026-04-20 17:37 -51.90117 -58.26110 7449 ft 299 kts 133°
2026-04-20 17:38 -51.91346 -58.23403 6938 ft 296 kts 133°
2026-04-20 17:38 -51.92567 -58.20727 6204 ft 295 kts 133°
2026-04-20 17:38 -51.93760 -58.18057 5648 ft 293 kts 126°
2026-04-20 17:38 -51.94368 -58.14909 5177 ft 299 kts 92°
2026-04-20 17:39 -51.93875 -58.11672 4680 ft 297 kts 56°
2026-04-20 17:39 -51.92453 -58.09410 4148 ft 284 kts 20°
2026-04-20 17:39 -51.90598 -58.08817 3687 ft 265 kts 344°
2026-04-20 17:39 -51.89056 -58.09979 3478 ft 232 kts 309°
2026-04-20 17:40 -51.88028 -58.11851 3428 ft 213 kts 295°
2026-04-20 17:40 -51.87601 -58.13236 3400 ft 197 kts 285°
2026-04-20 17:40 -51.87185 -58.15290 3315 ft 189 kts 281°
2026-04-20 17:40 -51.86836 -58.17316 3233 ft 180 kts 280°
2026-04-20 17:41 -51.86524 -58.19162 3157 ft 161 kts 279°
2026-04-20 17:41 -51.86237 -58.20893 3081 ft 158 kts 279°
2026-04-20 17:41 -51.85956 -58.22584 2917 ft 157 kts 279°
2026-04-20 17:41 -51.85666 -58.24330 2712 ft 159 kts 280°
2026-04-20 17:42 -51.85389 -58.25984 2525 ft 148 kts 280°
2026-04-20 17:42 -51.85128 -58.27544 2335 ft 140 kts 280°
2026-04-20 17:42 -51.84876 -58.29050 2139 ft 137 kts 279°
2026-04-20 17:42 -51.84622 -58.30534 1939 ft 136 kts 280°
2026-04-20 17:43 -51.84381 -58.32004 1802 ft 135 kts 281°
2026-04-20 17:43 -51.84136 -58.33471 1585 ft 135 kts 281°
2026-04-20 17:43 -51.83888 -58.34930 1392 ft 135 kts 282°
2026-04-20 17:43 -51.83648 -58.36391 1174 ft 134 kts 279°
2026-04-20 17:44 -51.83413 -58.37857 993 ft 135 kts 282°
2026-04-20 17:44 -51.83150 -58.39310 824 ft 134 kts 284°
2026-04-20 17:44 -51.82906 -58.40763 679 ft 134 kts 285°
2026-04-20 17:44 -51.82670 -58.42231 479 ft 135 kts 284°
2026-04-20 17:45 -51.82420 -58.43693 331 ft 135 kts 284°
2026-04-20 17:45 -51.82191 -58.45053 264 ft 112 kts 285°
2026-04-20 17:45 -51.82042 -58.45943 258 ft 57 kts 285°
2026-04-20 17:45 -51.81968 -58.46380 260 ft 32 kts 286°
2026-04-20 17:46 -51.81903 -58.46742 266 ft 34 kts 285°
2026-04-20 17:46 -51.81845 -58.47090 266 ft 30 kts 285°
2026-04-20 17:46 -51.81799 -58.47367 264 ft 21 kts 285°
2026-04-20 17:46 -51.81849 -58.47514 262 ft 15 kts 197°
2026-04-20 17:47 -51.81918 -58.47516 261 ft 3 kts 162°
2026-04-20 17:47 -51.81918 -58.47515 261 ft 0 kts 161°
2026-04-20 17:48 -51.81949 -58.47472 261 ft 14 kts 124°
2026-04-20 17:48 -51.81977 -58.47338 262 ft 0 kts 104°
2026-04-20 17:48 -51.81977 -58.47334 262 ft 3 kts 104°
2026-04-20 17:48 -51.81996 -58.47213 266 ft 13 kts 104°
2026-04-20 17:49 -51.82012 -58.47121 267 ft 4 kts 119°
2026-04-20 17:49 -51.82040 -58.47112 267 ft 9 kts 177°
2026-04-20 17:49 -51.82117 -58.47138 267 ft 10 kts 186°
2026-04-20 17:49 -51.82156 -58.47086 266 ft 7 kts 115°
2026-04-20 17:50 -51.82171 -58.47009 263 ft 9 kts 106°
2026-04-20 17:50 -51.82162 -58.46902 260 ft 10 kts 37°
2026-04-20 17:50 -51.82111 -58.46868 260 ft 6 kts 18°
2026-04-20 17:50 -51.82076 -58.46845 260 ft 6 kts 39°
2026-04-20 17:51 -51.82073 -58.46751 260 ft 14 kts 98°
2026-04-20 17:51 -51.82113 -58.46608 260 ft 12 kts 157°
2026-04-20 17:51 -51.82184 -58.46616 259 ft 11 kts 193°
2026-04-20 17:51 -51.82225 -58.46707 260 ft 10 kts 279°
2026-04-20 17:52 -51.82209 -58.46799 260 ft 7 kts 285°
2026-04-20 17:52 -51.82194 -58.46883 260 ft 12 kts 286°
2026-04-20 17:52 -51.82172 -58.47006 263 ft 6 kts 286°
2026-04-20 17:52 -51.82167 -58.47034 264 ft 0 kts 286°
2026-04-20 18:12 -51.82865 -58.41008 645 ft 135 kts 285°
2026-04-20 18:12 -51.82627 -58.42479 457 ft 135 kts 285°
2026-04-20 18:12 -51.82220 -58.44881 265 ft 117 kts 285°
2026-04-20 18:12 -51.82796 -58.41437 579 ft 136 kts 285°
2026-04-20 18:13 -51.82556 -58.42884 408 ft 135 kts 285°
2026-04-20 18:13 -51.82313 -58.44329 275 ft 127 kts 285°
2026-04-20 18:13 -51.82900 -58.40800 669 ft 127 kts 285°
2026-04-20 18:13 -51.82924 -58.40660 672 ft 102 kts 285°
2026-04-20 18:14 -51.82819 -58.41288 611 ft 136 kts 285°
2026-04-20 18:15 -51.82582 -58.42738 426 ft 136 kts 285°
2026-04-20 18:15 -51.82336 -58.44191 289 ft 129 kts 285°
2026-04-20 18:15 -51.82125 -58.45442 264 ft 88 kts 285°
2026-04-20 18:15 -51.82004 -58.46117 257 ft 45 kts 285°
2026-04-20 18:16 -51.81912 -58.46702 267 ft 86 kts 286°
2026-04-20 18:16 -51.81685 -58.48057 423 ft 155 kts 285°